Погода в Кидюге

Россия / Архангельская область     61°27′20″N   44°57′54″E
темп.,
°C
ветер,
м/с
пор.,
м/с
влажн.,
%
обл.,
%
осадки,
мм/ч
давл.,
гПа
погр.,
м
15 мая, сб
сб1500:00+12зюз227060 0.0 101635
03:00+11юз1173100 0.0 101611
06:00+14ююз376394 0.0 1016311
09:00+15ю237797 0.1 1015327
12:00+18ююв24626 0.0 1015736
15:00+22ююв1247100 0.0 10121816
18:00+20вюв2471100 0.6 1011444
21:00+15юв2592100 2.5 1009126
16 мая, вс
вс1600:00+14ююв31096100 0.0 1009316
03:00+13ююв4109546 0.1 1008438
06:00+14ююз4119199 0.0 1007569
09:00+18ююз596918 0.0 10071041
12:00+23ююз6104358 0.3 10062387
15:00+22ююз594775 0.3 10062182
18:00+19ююз5106744 0.3 10061267
21:00+15ююз411815 0.4 1007745
17 мая, пн
пн1700:00+14ююз4118793 0.0 1007601
03:00+14юз5108797 0.3 1008867
06:00+12з5118399 0.1 1010956
09:00+13з51178100 0.2 10131139
12:00+17з51159100 0.1 10141706
15:00+19сз594836 0.1 10161782
18:00+18ссз36542 0.0 10171046
21:00+11св268895 0.0 1019165
18 мая, вт
вт1800:00+9св249783 0.0 1020118
03:00+8в229761 0.0 102149
06:00+12в237686 0.0 1021224
09:00+17вюв2355100 0.0 1020569
12:00+21юв3442100 0.0 10191106
15:00+23юв4538100 0.0 10191415
18:00+22юв364793 0.0 1018963
21:00+17юв412666 0.0 1018345
19 мая, ср
ср1900:00+16юв4146529 0.0 1017401
03:00+15юв31370100 0.0 1016318
06:00+18ююв412685 0.0 1016403
09:00+24ююв511465 0.0 1014770
12:00+28ююв69305 0.0 10131690
15:00+29ю6929100 0.0 10122928
18:00+27ююв510385 0.0 10111496
21:00+22юв514555 0.0 1010671